TimeMDT,TemperatureF,Dew PointF,Humidity,Sea Level PressureIn,VisibilityMPH,Wind Direction,Wind SpeedMPH,Gust SpeedMPH,PrecipitationIn,Events,Conditions,WindDirDegrees,DateUTC
3:53 AM,61.0,54.0,78,29.93,-9999.0,East,3.5,-,N/A,,Unknown,80,2013-08-23 09:53:00
4:53 AM,57.9,54.0,87,29.92,10.0,NE,4.6,-,N/A,,Clear,40,2013-08-23 10:53:00
5:53 AM,57.0,53.1,87,29.92,10.0,Calm,Calm,-,N/A,,Clear,0,2013-08-23 11:53:00
6:53 AM,55.9,53.1,90,29.91,10.0,NNE,4.6,-,N/A,,Clear,30,2013-08-23 12:53:00
7:53 AM,59.0,53.1,81,29.90,10.0,NNE,3.5,-,N/A,,Clear,30,2013-08-23 13:53:00
8:53 AM,62.1,55.0,78,29.89,10.0,NNE,3.5,-,N/A,,Clear,30,2013-08-23 14:53:00
9:53 AM,69.1,55.9,63,29.87,10.0,North,3.5,-,N/A,,Clear,10,2013-08-23 15:53:00
10:53 AM,75.0,55.0,50,29.86,10.0,Calm,Calm,-,N/A,,Clear,0,2013-08-23 16:53:00
11:53 AM,77.0,51.1,40,29.84,10.0,WSW,4.6,-,N/A,,Clear,240,2013-08-23 17:53:00
12:53 PM,81.0,46.0,29,29.83,10.0,SSW,9.2,-,N/A,,Clear,210,2013-08-23 18:53:00
1:53 PM,84.0,45.0,25,29.80,10.0,SW,12.7,-,N/A,,Clear,230,2013-08-23 19:53:00
2:53 PM,84.0,45.0,25,29.78,10.0,SW,13.8,20.7,N/A,,Clear,230,2013-08-23 20:53:00
3:53 PM,80.1,46.9,31,29.81,10.0,SW,8.1,-,N/A,,Clear,230,2013-08-23 21:53:00
4:53 PM,78.1,46.0,32,29.82,10.0,SW,16.1,26.5,N/A,,Clear,230,2013-08-23 22:53:00
5:53 PM,75.0,44.1,33,29.83,10.0,South,6.9,-,N/A,,Clear,190,2013-08-23 23:53:00
6:53 PM,73.0,46.0,38,29.84,10.0,South,9.2,-,N/A,,Clear,180,2013-08-24 00:53:00
7:53 PM,72.0,46.0,40,29.83,10.0,South,9.2,16.1,N/A,,Mostly Cloudy,170,2013-08-24 01:53:00
8:53 PM,68.0,48.9,50,29.85,10.0,SSE,16.1,27.6,N/A,,Clear,160,2013-08-24 02:53:00
9:53 PM,64.9,50.0,58,29.86,10.0,South,10.4,18.4,N/A,,Clear,180,2013-08-24 03:53:00
10:53 PM,64.0,48.0,56,29.84,10.0,SSE,15.0,25.3,N/A,,Clear,160,2013-08-24 04:53:00
11:53 PM,64.9,46.9,52,29.87,10.0,SSW,4.6,-,N/A,,Clear,200,2013-08-24 05:53:00